GFSFLT2_925_spd_051.txt.gz
Wind_Speed
17 15 15 14 12 11 11 9 9 9 9 9 10 10 10 10 9 9 8 7 6 6 6 7 8 9 10 11 12 13 11 9
16 15 14 11 11 11 10 9 9 9 10 9 10 10 9 10 8 5 4 3 3 4 4 5 6 7 9 10 8 8 9 9
16 15 12 12 10 10 9 9 9 9 9 10 8 6 5 7 3 2 2 3 4 4 5 6 7 5 7 11 8 9 10 9
13 12 11 11 10 10 9 8 8 7 6 5 4 4 2 3 1 3 4 6 6 7 7 8 7 9 7 10 10 11 12 11
13 13 11 10 11 10 9 8 7 6 5 3 3 2 2 2 3 6 2 5 7 6 7 8 8 9 10 10 11 12 14 13
14 13 12 10 10 9 8 7 6 5 4 2 2 3 2 3 4 4 4 5 7 8 10 8 9 9 9 9 11 12 13 14
14 14 13 12 10 9 8 6 3 4 3 3 6 7 6 4 4 4 3 6 6 8 9 11 11 12 12 13 13 14 15 16
15 14 12 11 10 8 8 10 10 9 9 9 7 6 5 3 4 3 4 4 6 7 8 12 13 15 15 15 17 18 19 19
16 15 13 12 13 12 12 11 12 13 10 8 7 4 2 3 3 3 4 6 6 7 9 12 14 17 18 20 20 21 21 22
15 14 16 17 17 16 13 8 11 15 13 6 5 5 6 4 4 4 2 4 5 8 11 14 16 19 21 21 21 22 23 22
15 17 19 18 16 11 13 12 10 15 2 5 5 6 5 6 4 4 5 7 8 9 12 14 17 19 20 20 21 23 21 21
17 20 20 19 14 9 8 13 8 5 5 5 4 3 3 3 2 3 6 7 8 10 12 13 15 18 20 21 22 21 23 19
19 19 17 13 9 6 8 6 10 11 8 6 4 2 2 3 4 6 7 9 9 10 12 14 16 18 20 22 22 27 23 17
18 15 16 11 9 8 11 14 13 11 8 6 3 2 3 4 6 8 8 11 10 11 13 15 17 17 20 22 11 20 21 16
17 15 14 12 12 12 11 9 8 8 6 5 1 3 4 6 7 8 8 9 11 12 13 14 18 18 17 19 12 11 20 23
15 15 14 12 11 10 11 12 6 5 2 1 3 4 6 7 8 8 9 11 13 13 15 16 17 19 21 20 20 22 11 12
15 14 12 11 7 7 7 4 2 2 2 3 6 8 8 8 9 9 11 14 15 16 17 17 18 21 21 21 20 20 19 16
13 13 12 10 8 6 4 4 1 2 3 7 8 9 8 9 10 12 15 17 17 18 17 18 19 19 19 20 18 17 15 14
13 12 11 10 9 7 6 4 2 3 5 9 8 11 12 12 13 16 18 20 20 18 21 20 19 18 18 18 15 16 14 14
12 12 11 9 8 7 5 2 3 5 7 10 12 13 13 14 16 17 20 21 21 19 20 21 17 17 19 17 15 14 14 13

GFSFLT2_925_spd_054.txt.gz
Wind_Speed
19 18 19 17 15 14 13 11 10 11 11 11 10 11 11 11 12 10 9 8 8 8 8 9 11 12 14 14 11 12 15 15
21 19 17 16 15 13 12 12 11 11 12 11 12 12 12 11 10 7 5 5 5 5 6 7 9 8 9 13 10 12 13 14
22 22 18 13 12 12 11 11 12 12 13 12 12 8 8 7 6 3 4 6 5 5 6 8 8 8 7 9 14 12 13 15
24 21 19 15 14 14 10 13 13 11 10 6 2 5 7 4 1 3 4 6 5 4 6 9 8 12 11 10 12 13 16 18
18 17 16 14 14 16 12 11 11 8 5 3 7 3 1 3 6 6 3 6 7 5 10 4 8 9 11 11 12 13 14 16
18 17 13 17 15 15 13 14 11 10 8 5 3 1 2 5 3 6 6 10 9 7 8 10 9 8 10 8 12 13 15 17
19 19 16 17 12 15 14 13 10 10 7 6 3 3 4 4 4 7 11 5 7 7 10 10 11 13 15 14 15 18 17 18
21 19 18 15 17 13 19 17 16 15 9 7 5 7 7 4 4 3 5 6 7 7 9 11 13 15 18 17 17 18 17 18
21 20 17 18 22 20 18 14 12 13 10 8 7 7 7 6 3 2 5 6 8 9 12 13 15 17 18 20 20 19 20 21
21 20 21 24 24 20 15 15 10 5 5 10 8 12 10 5 8 8 8 10 8 9 12 14 16 18 19 19 18 19 22 23
20 25 23 24 22 18 16 8 5 3 6 8 8 12 9 7 9 6 7 6 8 9 12 13 16 17 19 20 21 23 22 23
23 23 22 21 18 15 11 9 6 4 9 10 11 8 4 4 3 3 5 8 8 11 10 12 15 18 20 19 20 19 23 26
26 23 20 18 15 11 8 10 9 11 10 10 8 5 3 1 3 5 7 7 9 9 10 13 15 19 20 22 16 22 22 21
20 17 16 13 14 12 11 11 12 11 12 9 6 4 1 2 2 3 6 8 10 9 12 15 16 16 21 19 6 15 17 23
16 16 18 19 14 13 15 15 13 14 11 10 9 5 1 3 4 6 7 7 10 12 12 11 12 18 15 16 7 5 17 15
20 23 20 14 15 14 14 13 12 10 12 13 6 1 2 4 6 7 7 8 11 12 12 16 15 14 16 16 18 21 5 7
22 19 16 15 10 15 14 7 11 10 7 4 2 7 6 8 8 9 8 11 14 16 17 10 13 17 16 16 17 19 17 10
17 17 15 14 9 8 6 7 9 10 5 3 4 3 8 6 5 5 7 12 14 16 17 15 14 17 20 17 13 9 12 11
15 16 16 13 11 9 8 8 7 4 1 2 5 7 10 11 10 12 15 17 19 21 21 17 20 18 18 18 16 15 14 12
17 18 17 14 12 11 10 8 4 3 1 4 6 9 10 11 12 12 15 18 19 20 21 20 17 16 16 18 17 14 14 12

GFSFLT2_925_spd_057.txt.gz
Wind_Speed
20 20 20 21 19 17 16 16 16 16 16 17 18 17 16 15 14 12 11 11 10 10 11 11 11 12 15 15 16 14 19 4
21 21 21 21 18 16 15 16 15 16 17 18 18 17 15 13 11 10 9 8 8 9 9 9 9 10 10 13 15 12 21 10
20 23 21 20 18 16 16 16 16 17 18 18 16 13 12 9 9 7 6 8 8 10 10 9 10 13 10 10 12 12 17 14
21 22 21 19 18 16 17 17 17 18 16 13 11 9 7 5 4 3 4 4 6 6 6 7 8 9 9 9 10 11 11 16
25 24 24 20 20 19 21 19 16 14 9 5 7 10 9 3 2 5 2 4 5 5 7 8 8 9 10 9 10 11 10 13
30 23 26 19 22 20 19 17 14 11 12 10 7 8 5 3 6 10 8 15 16 13 9 6 8 10 12 14 13 14 15 16
26 21 24 21 18 15 20 21 20 16 10 8 5 5 5 6 7 6 6 5 7 7 8 10 11 11 10 12 14 17 13 12
24 21 22 18 26 26 23 21 18 13 10 9 9 9 8 6 5 6 6 9 9 9 9 10 10 11 12 14 16 16 16 18
26 26 20 25 23 21 21 18 15 14 14 11 10 10 8 9 7 9 12 11 10 7 6 7 10 12 13 13 14 17 19 19
25 21 24 26 22 21 19 16 14 14 14 14 13 13 11 11 11 10 8 7 5 3 7 12 11 12 13 14 18 19 18 20
27 26 28 26 22 19 18 14 10 12 13 14 15 14 12 9 9 7 8 4 4 6 10 9 12 14 16 15 15 17 19 20
36 33 29 26 22 19 14 6 8 11 13 14 14 12 11 7 7 6 3 5 7 7 6 9 11 13 13 18 15 15 14 21
38 34 29 26 21 17 11 8 9 11 12 13 12 10 8 8 9 8 6 6 7 6 8 10 12 13 13 21 17 7 19 15
32 29 27 23 20 15 9 12 10 16 15 14 12 8 7 8 3 1 5 6 5 9 13 12 11 13 15 13 4 14 10 20
27 24 23 22 19 16 13 15 18 18 17 13 8 8 7 4 1 4 5 5 8 11 12 11 11 14 10 6 3 2 8 5
21 20 21 21 15 22 22 20 23 21 17 11 9 8 3 3 5 8 9 9 8 11 12 15 14 9 9 14 15 13 2 4
23 21 20 16 22 22 24 22 15 17 17 14 9 2 2 4 7 7 5 5 6 8 11 13 14 12 11 11 14 14 15 3
26 22 18 19 19 20 17 20 21 21 17 12 7 8 6 7 3 2 2 7 11 14 17 17 18 15 16 15 11 6 11 10
23 27 22 17 16 14 19 19 16 12 9 8 4 1 3 5 5 6 8 10 13 15 16 18 19 20 18 13 12 14 18 14
22 23 21 17 15 15 13 13 12 10 6 3 3 2 3 4 7 9 12 13 15 17 19 19 20 14 10 12 10 11 14 13

GFSFLT2_925_spd_060.txt.gz
Wind_Speed
27 25 23 21 20 19 18 17 17 17 18 19 19 20 20 18 16 14 14 13 13 13 14 14 14 14 16 16 21 18 9 9
33 24 18 23 21 18 19 18 17 17 19 19 20 19 18 15 14 12 12 11 12 12 11 13 12 9 10 11 16 17 14 9
28 26 20 21 21 19 19 19 19 19 20 18 17 17 15 13 12 10 10 11 11 10 10 11 10 11 10 9 11 14 13 11
20 24 27 23 22 19 19 19 19 19 18 16 13 12 12 10 9 6 6 6 5 6 5 9 9 10 10 9 9 11 12 13
23 25 25 24 22 21 20 20 20 17 13 11 9 6 8 6 5 6 5 5 6 9 11 12 12 11 10 10 9 8 9 10
20 21 23 21 23 23 23 20 18 12 10 12 13 13 11 12 12 12 14 14 13 10 9 8 7 8 9 10 10 11 10 11
24 24 23 23 26 23 21 17 13 16 15 13 11 12 12 11 12 13 12 10 8 7 5 6 7 9 10 11 13 12 13 15
27 27 24 23 23 20 17 19 20 17 13 11 10 10 11 12 11 10 10 7 6 6 8 9 10 10 11 11 12 14 16 16
29 28 26 25 21 25 25 24 19 15 13 12 11 10 11 11 13 12 10 7 6 7 8 8 10 9 10 10 13 15 15 18
27 24 27 27 29 27 23 19 17 16 15 14 13 13 13 13 12 10 7 6 6 7 7 8 8 9 9 10 11 12 13 15
26 27 30 30 28 24 20 18 16 15 15 15 16 15 15 11 10 9 6 4 3 5 6 5 7 7 8 10 14 9 14 12
31 30 30 29 26 22 19 16 15 13 14 17 16 13 12 11 11 9 6 4 2 2 3 5 5 7 6 16 8 6 15 11
36 35 34 32 28 24 18 14 15 16 17 16 15 13 13 10 10 9 6 2 3 3 4 5 6 9 3 16 2 7 3 20
38 38 37 33 28 24 17 15 15 16 18 16 15 12 10 7 5 2 2 1 2 3 7 7 7 8 6 4 3 7 3 21
39 39 35 30 24 18 12 16 18 20 18 19 15 10 8 5 3 4 1 1 4 5 7 7 6 7 4 2 2 2 7 7
35 32 29 27 23 20 19 21 25 24 24 20 16 10 7 5 3 2 1 1 2 4 6 7 9 8 7 8 10 10 2 4
29 27 26 25 24 22 24 26 25 26 24 18 15 13 10 7 5 3 2 2 3 6 8 9 10 11 13 9 7 10 10 5
24 25 26 25 25 22 29 28 26 26 22 18 13 9 8 4 3 2 1 3 6 7 9 11 12 13 15 15 12 7 6 7
27 24 21 22 23 27 26 23 23 26 22 17 16 10 8 8 2 4 2 3 5 8 11 13 12 14 15 15 11 11 12 13
26 21 23 24 25 24 25 23 21 17 14 9 7 8 4 7 4 1 5 8 11 13 12 13 15 14 11 10 12 13 12 14

GFSFLT2_925_spd_063.txt.gz
Wind_Speed
24 27 22 20 24 20 19 18 18 19 19 19 19 19 20 20 19 19 18 17 16 16 16 14 14 17 18 19 16 11 12 13
28 25 23 18 19 17 18 18 19 19 19 20 19 18 18 18 17 16 16 14 14 14 13 14 15 16 16 15 15 13 11 9
27 25 24 21 18 18 18 18 18 19 20 20 18 16 16 15 14 15 13 13 12 12 11 11 11 12 15 14 14 12 9 9
28 17 17 18 19 19 20 21 20 20 19 17 16 14 12 13 12 11 10 8 8 9 10 10 11 11 10 11 12 11 11 11
25 22 22 22 21 20 20 21 21 20 17 14 13 11 9 8 8 9 7 7 11 11 12 12 11 10 10 10 11 13 11 11
26 21 23 21 19 21 21 21 20 17 15 12 7 11 12 11 11 11 12 12 14 13 12 10 10 10 10 8 9 10 10 10
23 19 22 20 22 21 21 21 17 14 14 14 12 13 12 13 14 14 14 12 10 10 9 9 11 11 10 10 12 12 12 12
23 22 22 21 21 22 20 19 17 16 14 14 12 13 16 15 15 13 12 9 9 9 10 9 11 10 11 12 14 13 13 14
19 24 22 22 22 21 18 18 18 16 14 12 13 15 14 14 13 13 12 10 9 9 8 8 10 12 12 11 12 11 11 12
24 26 23 23 23 19 19 18 18 16 14 14 15 14 14 15 15 13 11 9 6 6 8 10 11 11 10 9 10 7 10 12
28 29 26 26 21 21 21 19 16 16 16 15 15 16 16 14 12 12 8 4 4 6 7 8 8 6 4 10 3 6 9 12
29 28 27 24 26 23 21 19 18 17 16 16 17 17 14 12 11 9 5 3 1 3 4 3 2 2 3 11 0 5 5 15
29 29 30 32 29 26 23 21 18 16 16 17 17 16 12 10 9 7 5 2 1 4 2 1 1 2 4 7 2 1 5 13
32 33 34 34 32 28 24 21 17 18 20 18 15 13 13 9 7 6 5 2 6 3 1 1 1 2 3 2 3 5 9 14
37 36 36 34 31 24 18 19 16 20 21 19 17 15 11 8 5 3 4 4 4 2 2 2 3 3 3 1 1 3 4 4
38 37 35 34 28 23 20 23 23 22 24 22 20 15 11 10 8 8 7 5 2 1 2 2 6 7 6 8 10 9 3 4
36 35 33 32 28 23 21 20 23 23 23 23 19 16 11 7 8 5 4 3 0 2 3 4 6 7 8 9 9 10 10 8
34 31 30 30 28 24 22 22 23 22 23 20 17 12 11 7 7 6 2 6 2 3 6 7 8 8 10 11 13 9 6 9
32 32 33 28 25 26 25 23 25 23 26 22 19 17 12 9 7 7 11 4 5 7 10 11 10 12 12 11 12 13 14 15
29 30 28 26 27 28 22 24 24 22 23 22 19 14 13 11 12 9 7 5 6 10 12 11 10 9 7 8 11 14 16 16

GFSFLT2_925_spd_069.txt.gz
Wind_Speed
29 29 30 29 26 28 28 28 28 26 25 23 25 26 26 26 24 22 21 20 21 21 20 21 21 18 16 15 14 11 9 9
28 30 29 24 22 26 26 27 27 25 24 24 25 24 23 22 21 20 20 19 20 21 20 20 19 16 15 14 9 8 8 8
31 30 27 18 22 22 21 21 23 25 25 25 24 23 21 19 17 16 18 19 21 20 19 18 18 16 12 9 6 7 6 6
36 40 33 31 19 18 18 20 24 26 26 24 23 22 20 18 16 14 15 19 19 18 18 17 16 15 12 8 9 8 7 6
37 35 34 31 23 19 20 22 25 25 24 23 22 21 19 17 16 14 17 17 19 18 17 15 14 12 10 9 8 8 7 6
38 34 27 19 17 19 20 21 25 25 24 22 21 19 18 16 15 17 16 16 16 14 14 13 12 10 9 8 8 9 9 8
35 30 24 17 19 20 21 22 23 23 21 19 17 17 15 16 18 19 17 15 13 12 11 10 10 10 10 10 10 10 10 11
36 34 20 8 14 18 20 21 22 21 20 15 16 16 18 19 19 19 17 14 13 11 10 9 10 9 9 9 10 10 11 11
30 20 12 13 15 17 19 21 19 19 18 16 18 16 17 19 19 18 16 14 12 10 10 9 9 8 9 9 7 7 8 10
22 14 12 12 14 17 19 20 19 19 18 18 16 16 17 18 18 17 16 13 11 10 9 9 8 7 8 8 3 3 5 8
20 16 17 17 15 17 19 20 18 18 17 17 17 18 18 17 18 18 15 12 10 8 8 6 6 4 4 7 1 4 3 4
21 17 16 16 19 20 19 19 18 18 16 19 20 18 18 18 18 17 13 10 9 8 6 5 4 2 1 3 4 7 5 2
20 20 19 22 24 20 18 19 18 16 15 18 20 20 19 18 18 15 12 9 8 6 4 3 2 1 2 5 4 9 9 5
25 24 26 26 23 22 18 19 17 17 19 20 20 19 18 19 18 15 13 10 8 6 5 3 3 3 2 2 2 4 10 11
26 24 27 26 23 22 17 20 17 17 20 21 21 19 19 19 16 14 11 8 10 8 7 6 4 4 4 2 2 3 9 4
22 22 23 25 26 25 25 22 19 15 25 24 22 21 20 18 16 12 10 11 9 8 7 7 4 3 4 7 8 7 4 6
26 25 25 25 26 27 26 22 22 20 22 22 21 21 20 18 16 14 15 11 9 7 7 4 3 4 5 4 6 7 9 9
24 23 23 24 25 27 26 25 22 18 22 21 21 21 21 19 18 18 13 11 5 7 5 4 4 5 5 6 6 7 7 8
22 22 22 24 29 29 27 26 23 23 22 24 23 23 23 23 21 18 15 4 5 8 7 5 5 7 7 6 6 6 7 10
23 24 23 24 26 27 28 27 26 24 25 28 31 27 23 23 22 18 9 9 9 11 7 5 7 9 7 7 6 7 8 12

GFSFLT2_925_spd_072.txt.gz
Wind_Speed
30 29 31 28 27 28 31 32 32 32 32 31 30 28 26 24 23 22 22 21 20 20 20 19 18 15 14 13 10 10 8 8
27 25 26 24 26 26 26 29 31 31 33 32 30 28 26 23 22 20 20 20 20 19 19 19 16 14 12 9 9 10 7 7
29 30 33 31 24 25 23 23 26 30 33 32 28 24 21 17 17 18 18 19 19 18 18 16 13 12 10 7 9 7 6 7
33 35 35 29 22 22 19 21 17 20 27 25 22 21 18 18 18 19 19 19 18 17 17 15 10 7 6 8 7 6 7 7
37 38 42 39 28 26 17 13 17 15 19 20 19 18 19 16 17 16 16 17 16 14 11 8 8 6 6 7 6 7 6 5
32 32 34 37 35 33 23 15 14 15 16 16 17 16 16 15 15 15 14 13 13 10 9 9 8 7 7 7 7 6 5 5
26 30 30 25 24 23 20 18 19 14 17 15 15 14 14 13 14 14 13 12 11 11 9 7 7 6 6 7 7 7 6 6
38 29 34 35 24 17 17 18 20 16 14 14 13 12 13 16 14 13 12 11 10 9 8 7 6 5 6 6 6 5 6 7
32 29 24 24 17 15 16 17 18 17 14 13 14 15 16 15 13 13 11 10 11 10 8 7 5 5 5 4 4 4 5 6
27 24 14 17 15 15 14 17 16 13 12 11 13 14 14 14 13 13 13 11 9 8 6 5 4 3 3 3 3 2 2 4
27 16 11 12 13 14 14 15 13 12 12 12 14 14 15 14 14 14 13 11 8 8 6 4 3 1 2 4 3 3 2 2
22 15 13 12 12 13 14 14 11 12 11 12 15 15 17 16 15 16 13 11 9 8 6 3 2 2 4 5 6 6 5 5
21 16 11 13 14 16 15 14 12 11 11 12 16 20 19 16 16 16 13 11 10 9 6 3 1 2 5 6 6 7 8 8
21 19 17 17 17 17 15 15 12 13 12 13 15 18 18 16 16 16 14 12 10 8 5 2 2 3 5 8 4 4 6 10
25 21 19 20 17 16 13 14 11 12 13 14 16 21 19 15 17 16 14 11 11 8 5 4 4 4 5 4 4 4 13 5
26 22 20 19 20 18 18 17 15 14 15 12 15 20 16 17 17 15 13 11 11 9 7 5 5 6 5 6 7 10 5 6
23 22 21 21 22 21 20 17 15 15 20 17 15 17 18 17 16 15 13 11 10 8 7 7 6 6 7 7 8 10 11 11
25 25 24 23 23 23 21 20 18 18 21 21 20 20 19 19 18 16 14 12 11 7 11 10 7 7 7 8 9 10 11 12
27 27 26 25 24 24 24 22 21 22 22 24 22 21 21 21 20 18 15 14 8 10 10 9 8 8 8 8 9 9 10 11
27 26 25 25 24 25 24 23 22 22 23 21 24 21 19 18 18 17 16 15 9 10 10 12 10 9 9 9 9 10 11 12

GFSFLT2_925_spd_075.txt.gz
Wind_Speed
34 34 33 30 29 29 28 29 30 31 30 30 29 26 24 21 21 21 20 21 22 20 18 17 15 13 11 10 11 10 9 9
26 27 28 26 24 25 26 28 30 31 31 30 29 26 24 21 21 20 20 20 20 19 17 16 13 11 10 9 7 8 8 8
28 28 29 29 25 23 22 23 24 26 28 30 30 27 23 17 16 18 18 19 18 18 17 13 11 10 7 8 8 7 6 7
30 34 40 36 26 22 21 19 20 20 26 23 21 24 16 16 19 18 17 17 17 16 14 12 9 6 3 6 6 6 6 7
36 42 42 42 32 32 25 21 18 18 18 19 20 17 19 16 17 15 16 16 15 13 10 5 5 4 4 5 5 5 6 5
39 44 43 37 31 35 27 27 19 19 16 15 16 19 19 16 15 14 15 12 12 9 7 7 6 6 6 5 6 5 5 5
27 33 29 38 27 32 27 21 19 21 17 19 20 18 17 16 16 14 13 12 11 9 8 7 6 5 4 4 4 5 5 5
27 25 30 25 24 24 20 16 14 17 18 15 12 15 16 14 15 14 13 12 10 9 7 6 5 4 4 3 3 4 4 4
25 22 23 27 22 14 17 15 14 15 15 12 11 13 14 16 14 14 13 12 12 10 8 6 5 3 3 2 2 2 2 2
32 31 28 30 30 27 19 17 17 15 13 15 12 13 14 14 14 14 14 13 11 10 8 7 5 3 1 1 2 2 1 1
35 32 32 29 21 21 18 16 17 16 16 15 15 13 14 14 15 14 15 13 11 10 9 6 4 2 2 3 3 4 3 3
29 24 21 22 18 16 15 17 17 16 17 15 16 15 15 14 13 14 14 13 11 10 9 6 3 1 4 5 6 4 5 5
28 21 19 18 17 18 19 20 16 15 14 13 15 14 15 15 13 14 14 12 12 11 9 6 5 2 5 6 8 8 7 7
23 19 15 18 18 18 19 18 17 15 14 14 14 19 19 16 15 15 14 13 12 11 9 7 4 3 2 8 5 3 10 11
25 21 18 18 17 17 16 15 13 12 14 14 14 14 16 17 16 16 15 14 13 11 9 6 4 2 1 3 4 3 14 12
26 24 24 21 19 19 19 19 17 17 16 14 16 18 16 16 17 17 16 14 13 12 8 4 1 4 3 6 6 9 4 5
29 26 23 22 21 21 21 19 18 13 15 15 19 21 18 18 18 17 16 14 13 11 8 5 2 5 7 10 10 11 12 13
30 28 26 22 23 25 22 23 16 17 17 18 19 19 21 21 20 18 17 15 13 12 10 7 9 9 8 9 11 11 13 14
30 29 27 26 25 25 26 24 22 21 22 22 20 19 22 22 21 20 19 16 16 13 7 10 8 9 9 11 11 13 13 14
32 30 29 28 28 27 27 26 23 22 23 21 21 23 23 20 23 21 18 17 19 9 9 8 9 10 10 12 13 13 13 14

GFSFLT2_925_spd_078.txt.gz
Wind_Speed
38 35 35 32 35 30 31 30 30 29 29 29 29 27 27 25 24 25 25 23 22 20 19 17 15 13 12 14 14 15 15 18
23 29 35 35 32 31 31 31 30 30 28 28 28 27 27 25 24 24 25 22 20 18 17 14 13 11 11 10 9 11 15 11
15 11 29 33 32 30 29 28 27 26 25 26 27 28 27 24 25 24 23 20 18 17 16 12 11 9 9 10 11 10 14 10
33 30 34 34 31 29 29 26 24 25 27 24 24 25 23 24 22 21 20 19 18 16 14 10 9 7 7 8 8 9 9 10
33 35 38 38 36 35 29 28 21 23 24 15 18 21 17 22 21 20 19 19 19 16 12 5 4 8 2 6 5 7 9 5
34 35 39 39 38 35 30 22 25 24 21 21 17 20 16 19 18 20 19 16 16 10 9 8 6 6 5 6 5 6 5 3
28 30 27 35 30 29 31 27 28 20 20 22 20 19 16 17 17 18 16 16 14 11 8 8 8 7 6 5 4 5 6 4
30 27 28 34 28 31 26 27 24 19 19 19 15 18 17 17 19 16 16 15 12 12 12 8 9 5 5 4 4 5 4 5
29 30 30 31 23 20 24 21 20 19 14 14 13 18 20 19 17 15 13 15 16 14 12 10 8 8 5 5 2 4 3 3
28 30 27 24 23 21 22 17 15 14 11 15 16 18 20 19 18 17 15 18 17 12 12 9 9 7 6 3 2 2 2 1
35 35 35 34 34 30 26 24 12 17 23 22 22 18 17 19 19 17 17 14 14 13 12 11 9 6 5 6 5 4 4 5
33 33 32 34 36 37 27 22 23 22 21 18 17 14 17 17 17 18 16 15 15 13 13 9 8 6 2 1 6 9 9 9
33 31 35 35 28 28 24 24 22 22 20 19 20 17 18 16 17 16 18 17 16 14 13 10 6 3 2 9 11 18 14 12
30 30 33 30 27 25 23 20 22 20 21 21 19 19 19 19 17 18 19 18 17 17 14 12 6 7 0 6 3 5 11 14
32 32 31 28 28 24 21 19 19 20 20 19 21 22 23 23 18 20 20 18 18 17 15 10 8 11 9 3 2 1 3 5
31 28 27 26 28 25 24 21 19 17 18 19 21 18 18 19 16 18 21 17 17 18 14 11 9 5 8 8 10 6 2 3
31 29 26 26 26 21 26 25 24 21 24 23 24 23 25 28 23 23 23 20 18 20 18 15 10 8 8 8 9 6 10 10
35 29 30 32 33 30 25 25 27 23 25 27 25 23 27 26 23 24 21 22 17 20 17 14 11 10 7 6 6 5 7 9
32 32 30 30 38 31 32 27 27 27 28 25 24 25 26 30 25 25 24 22 19 22 16 14 11 10 8 6 8 8 10 12
37 34 34 32 36 34 33 28 28 25 28 28 24 22 25 26 28 24 25 23 22 19 13 11 7 6 8 7 9 10 12 13

GFSFLT2_925_spd_081.txt.gz
Wind_Speed
38 43 43 42 41 37 37 34 33 32 32 31 30 30 30 32 31 28 27 27 25 24 20 18 17 15 18 17 23 22 19 19
23 21 43 43 40 39 37 35 33 31 32 31 30 29 29 31 29 27 27 25 23 22 20 17 16 15 14 15 20 15 18 17
9 24 39 43 41 37 35 34 32 32 32 31 30 29 30 30 29 28 25 24 22 20 18 16 14 14 13 13 16 12 13 14
22 19 29 35 37 37 35 34 32 33 32 31 32 29 29 29 28 25 23 21 20 18 17 15 13 10 8 10 11 10 11 11
26 28 31 34 35 37 36 36 35 32 31 30 28 27 27 29 27 24 22 21 21 18 17 11 7 9 9 10 13 9 8 9
34 40 40 38 39 37 36 39 37 28 30 22 23 25 24 26 25 23 22 21 20 15 14 12 10 6 6 8 9 6 7 7
34 39 40 38 39 37 35 36 39 31 25 20 23 22 24 23 22 21 20 20 17 15 12 10 8 8 8 7 8 5 8 5
33 35 36 39 38 35 35 34 29 22 24 21 18 22 22 21 21 21 18 18 16 11 13 9 9 6 6 6 7 7 4 7
32 31 32 31 30 28 28 31 17 22 23 19 19 20 23 19 20 19 20 21 14 13 12 10 10 6 5 6 7 7 6 3
30 31 31 29 29 33 35 27 24 23 23 20 20 14 18 22 21 22 19 20 17 18 15 14 10 9 7 8 9 5 3 7
32 34 34 31 28 26 27 27 25 22 20 20 16 16 15 21 22 20 20 19 22 19 15 14 13 12 12 12 9 7 5 8
39 38 38 38 33 28 29 25 20 20 23 18 18 15 15 21 20 22 22 21 18 16 16 15 14 11 7 13 11 9 8 10
29 32 37 35 31 32 33 30 24 29 25 20 23 22 21 24 22 23 22 19 19 19 18 13 12 11 7 4 7 12 14 13
25 34 37 38 36 33 29 29 22 24 27 28 27 27 26 25 22 26 22 20 21 20 20 16 11 11 6 2 1 1 11 12
29 32 37 38 36 32 24 24 27 30 33 33 30 27 27 25 23 26 24 24 26 25 21 18 13 15 12 4 1 3 1 3
32 34 41 39 37 30 27 25 22 27 33 32 28 29 29 27 27 26 25 25 28 27 23 20 14 16 12 9 6 3 3 2
34 33 33 36 36 35 30 31 32 29 30 29 27 29 27 27 29 26 27 30 27 26 25 23 17 17 15 9 8 9 11 5
35 34 35 37 38 38 36 33 32 31 29 31 30 30 27 27 29 26 28 29 26 26 26 26 21 17 11 9 7 4 4 3
37 36 31 39 40 39 41 36 38 35 34 34 34 33 30 31 31 31 28 29 28 29 31 29 23 16 11 10 6 3 2 6
37 37 37 35 40 40 41 36 37 39 37 37 38 38 35 34 35 32 28 31 29 31 31 24 20 13 13 11 11 11 13 13

GFSFLT2_925_spd_084.txt.gz
Wind_Speed
12 7 17 42 31 45 42 40 37 37 38 39 40 38 35 34 32 32 32 30 27 25 22 21 23 25 23 20 19 18 19 18
11 12 23 36 53 45 42 40 38 38 38 38 39 37 35 32 31 31 30 28 25 23 21 19 19 22 24 20 17 18 17 16
9 20 39 34 51 45 39 39 38 37 38 37 36 36 33 31 30 29 28 26 24 21 20 18 17 21 21 17 17 16 15 14
14 22 41 53 42 42 41 40 39 39 38 38 37 36 34 32 30 29 26 25 23 20 19 17 13 15 14 14 14 14 13 12
12 21 31 39 34 32 35 39 40 40 38 37 37 34 31 32 29 28 26 25 23 20 19 12 13 14 12 13 11 10 11 12
17 26 32 35 34 30 35 37 39 37 37 37 37 37 33 33 31 28 27 26 22 20 15 12 13 13 11 10 9 8 10 11
22 29 34 37 36 35 36 37 38 38 35 35 36 34 32 31 29 27 26 24 22 19 16 13 11 11 12 9 8 9 8 9
28 32 36 40 40 36 35 33 35 30 33 32 33 33 32 29 28 27 26 24 19 17 14 13 11 9 10 9 7 6 6 7
30 35 38 40 39 39 38 34 33 29 24 25 25 28 27 28 29 27 25 21 18 14 15 13 12 10 10 10 8 4 4 7
31 32 37 38 40 39 37 30 28 31 23 23 23 25 25 25 27 25 22 21 19 17 17 15 11 11 11 11 10 9 5 6
26 30 33 35 36 36 31 27 29 31 27 25 20 19 20 24 25 20 22 24 21 20 19 16 15 13 11 11 13 13 11 7
26 26 30 30 26 28 24 23 21 28 24 29 20 17 21 22 21 23 24 24 21 24 21 17 14 12 13 12 14 12 12 12
29 34 32 34 35 34 32 31 33 30 26 28 23 24 19 20 19 22 23 24 27 26 21 19 16 15 13 11 13 13 14 15
22 28 36 33 32 32 28 27 30 29 30 29 23 26 20 15 19 24 28 27 29 27 26 22 19 20 10 6 1 4 16 17
29 30 37 38 36 32 29 28 28 28 28 27 25 22 17 18 22 28 32 33 32 30 27 28 22 21 18 7 2 4 2 8
27 32 34 37 36 32 29 24 21 25 29 28 24 22 22 25 26 31 31 36 32 30 29 31 28 23 19 18 10 7 3 1
30 34 37 36 38 37 33 27 27 27 28 29 31 31 31 31 32 35 36 35 32 32 33 32 30 28 25 19 13 10 8 3
32 31 36 39 39 39 35 30 29 30 33 34 37 38 36 35 34 36 35 35 35 34 36 34 32 28 29 20 15 6 7 5
35 34 33 37 37 38 40 37 35 35 36 36 35 37 38 38 35 35 34 36 35 35 36 34 30 25 20 12 10 9 7 7
37 37 36 37 39 41 41 41 38 39 40 39 40 40 43 40 38 36 33 32 34 35 34 30 24 17 16 12 12 11 11 10

GFSFLT2_925_spd_087.txt.gz
Wind_Speed
25 27 35 30 43 46 46 37 38 38 40 39 39 39 39 38 39 39 37 34 31 29 28 27 28 28 24 21 19 19 19 20
28 32 35 37 39 43 42 37 37 44 42 40 39 38 38 37 37 37 35 32 30 29 27 27 26 24 21 18 18 18 18 18
21 24 18 39 45 45 42 36 37 44 43 41 40 37 36 35 36 34 32 31 29 28 26 27 27 24 19 18 17 17 16 16
8 17 32 34 44 45 42 34 31 34 43 42 37 34 36 35 34 33 31 29 27 26 23 25 24 20 20 18 17 15 14 16
6 11 23 57 45 35 39 35 31 31 42 40 33 34 36 37 34 31 29 28 27 25 23 20 18 16 18 17 15 14 14 14
6 5 20 34 44 47 47 38 37 38 42 42 37 35 37 36 35 33 31 27 27 23 21 20 18 16 15 14 14 12 12 14
12 16 26 30 35 41 42 41 39 41 41 41 40 40 40 39 34 32 30 27 26 23 20 19 16 15 13 12 12 12 12 12
17 22 26 35 36 36 40 39 36 39 38 38 40 41 41 39 33 31 28 25 24 21 20 20 16 13 14 12 12 10 10 10
22 26 32 32 34 40 39 36 36 39 41 40 38 39 38 37 32 30 29 26 21 19 17 17 17 15 13 11 10 9 9 8
24 29 32 36 38 37 34 33 34 35 35 33 32 32 34 32 32 29 28 24 22 20 19 17 16 14 14 12 11 8 7 8
21 29 34 38 35 36 33 34 32 28 28 27 27 28 26 28 28 28 28 24 22 20 18 18 18 16 13 12 12 10 8 9
20 23 36 38 36 29 26 27 29 25 23 22 25 22 21 22 25 26 25 25 23 20 21 20 18 16 14 13 13 12 11 11
25 25 30 35 30 27 28 27 33 27 22 23 23 22 20 19 25 24 25 28 25 25 23 22 19 18 16 12 12 14 15 17
23 25 27 25 25 23 23 29 33 32 26 24 24 24 21 22 26 26 27 28 28 28 28 23 18 21 10 6 1 5 16 19
25 28 31 29 28 26 23 21 26 26 30 27 24 25 22 20 21 25 30 31 31 31 30 28 24 23 15 7 2 4 2 8
27 32 32 31 29 30 28 26 25 27 30 29 23 22 22 22 26 29 32 29 29 31 31 31 30 26 22 18 9 7 4 1
27 29 34 32 31 31 32 28 29 30 30 28 25 26 29 32 32 28 27 29 33 34 35 34 33 30 30 18 16 11 7 3
30 29 31 35 34 34 34 30 31 31 33 29 32 34 34 33 31 28 28 30 34 35 36 35 37 35 32 25 12 3 5 4
30 33 32 37 39 41 42 40 38 36 36 35 33 37 36 35 34 33 34 34 36 38 36 36 39 37 30 24 20 19 6 6
30 29 30 33 37 40 42 41 37 37 37 36 36 37 41 41 39 39 39 37 37 36 37 38 38 34 28 23 28 23 19 16

GFSFLT2_925_spd_090.txt.gz
Wind_Speed
17 32 37 38 35 40 39 39 37 36 37 39 37 37 37 37 37 37 34 29 27 27 32 34 30 27 25 25 24 24 25 26
20 25 31 30 28 36 37 41 40 34 33 39 38 38 38 37 37 37 34 30 28 31 33 32 28 26 25 23 22 22 23 24
22 23 25 33 29 33 36 38 38 34 33 34 40 39 37 37 39 37 33 31 30 31 31 30 27 23 23 22 21 21 21 23
12 15 21 23 30 33 40 39 41 39 32 35 39 39 38 38 39 36 33 30 28 29 30 28 26 23 22 21 20 19 20 23
7 14 21 27 28 38 41 42 42 38 36 36 33 38 36 38 38 36 33 30 29 30 29 27 24 23 22 19 18 18 20 21
4 11 21 33 34 39 48 46 43 42 36 34 32 34 36 37 37 35 34 31 30 29 26 24 22 20 17 17 17 17 16 18
5 2 7 21 33 46 50 47 50 46 34 36 33 36 39 36 34 33 31 29 27 27 25 23 21 18 17 17 17 16 16 17
7 6 13 18 24 42 40 37 46 43 35 35 36 41 40 38 37 33 30 27 26 25 23 22 19 16 16 16 16 15 15 15
12 12 20 26 35 40 39 33 33 40 38 39 40 39 42 41 38 36 31 26 25 23 23 20 16 16 16 16 15 14 14 14
18 18 20 30 33 37 40 37 31 35 41 39 34 40 41 38 37 36 32 28 26 24 23 20 18 18 18 15 14 13 12 13
18 24 23 28 30 34 29 29 31 34 37 37 39 33 36 35 34 32 31 29 26 24 22 21 20 18 17 16 14 12 11 12
16 22 29 30 30 31 24 26 31 32 34 35 34 32 35 34 31 32 31 28 25 24 21 20 20 18 17 15 13 12 11 12
17 21 30 33 32 31 28 28 33 33 33 30 27 25 26 26 28 27 27 28 27 24 23 23 21 19 16 10 11 13 15 16
22 22 25 33 29 25 22 21 26 28 30 32 29 25 28 30 26 27 28 29 26 26 26 23 19 23 11 6 1 7 19 20
23 26 29 29 31 30 21 24 22 22 23 26 28 33 30 27 27 29 30 29 30 29 29 27 25 25 20 8 2 5 3 13
21 26 26 27 32 31 29 26 24 26 30 29 27 26 27 24 26 27 28 29 30 31 32 32 30 25 25 22 10 4 3 1
22 25 29 31 35 35 31 26 25 28 32 29 29 24 21 22 24 23 24 27 30 31 35 37 35 30 31 19 18 10 7 3
26 26 29 31 35 37 35 33 30 29 31 31 34 31 28 27 28 28 26 29 30 33 37 37 40 36 30 28 22 12 7 3
27 28 29 34 36 36 38 37 37 35 35 35 33 33 33 33 30 30 31 32 33 33 36 39 41 39 36 31 31 26 22 20
24 26 27 31 33 34 34 37 35 35 35 33 34 36 37 37 36 35 37 37 36 36 37 41 39 39 40 36 35 33 29 27

GFSFLT2_925_spd_093.txt.gz
Wind_Speed
10 10 11 25 27 32 43 44 43 40 39 40 43 41 40 39 37 35 32 30 29 30 32 29 28 26 26 25 24 24 21 21
14 34 39 31 36 36 40 42 42 42 41 41 43 44 41 39 36 32 30 26 28 32 32 29 28 27 25 24 23 23 20 20
11 21 31 34 35 31 33 39 43 42 42 41 43 39 38 36 30 32 28 27 30 34 33 30 27 25 24 23 19 18 16 16
3 14 21 30 30 33 34 34 40 42 42 42 35 34 37 30 31 30 29 30 33 35 32 30 26 22 21 20 15 17 16 16
8 10 14 20 25 27 37 35 27 41 43 40 38 32 36 34 31 29 30 32 29 31 31 23 23 22 20 17 18 16 15 14
7 9 14 17 24 31 36 44 36 33 41 37 41 34 34 32 32 31 31 26 28 26 27 26 25 22 22 19 18 17 16 15
9 9 13 18 22 28 41 48 45 38 39 38 42 35 34 35 38 32 29 32 33 31 28 25 24 23 20 19 18 16 16 14
8 10 13 18 29 43 37 45 47 47 37 38 38 38 40 40 41 35 33 33 32 31 29 25 23 22 19 17 17 17 16 16
9 6 7 7 12 45 49 44 44 39 40 39 36 41 45 41 42 37 33 33 31 29 27 24 22 21 19 18 16 16 17 16
8 6 9 10 21 34 41 43 38 33 35 36 40 46 46 44 39 38 35 33 32 29 26 21 20 19 19 17 15 16 16 16
10 9 14 19 23 26 36 38 38 33 35 38 36 44 44 45 42 37 37 32 32 29 27 23 21 17 18 17 17 15 15 16
12 13 16 23 25 27 29 29 30 33 33 38 33 43 44 41 37 32 32 27 29 28 25 22 19 19 14 14 16 15 16 17
14 17 20 24 25 23 21 26 31 29 32 30 31 34 39 33 31 31 31 26 28 28 24 22 17 19 15 8 12 15 17 18
13 17 21 23 25 21 22 23 26 22 25 35 34 33 29 29 28 29 29 27 26 27 27 22 16 24 10 9 4 9 17 21
15 19 24 24 25 25 21 19 20 21 28 31 34 34 31 27 29 28 31 28 28 29 28 26 17 25 18 7 3 6 7 12
16 20 28 27 29 27 31 23 22 20 27 30 31 29 31 26 23 26 27 34 29 29 31 31 22 18 19 24 11 4 4 4
20 22 21 23 27 32 31 21 20 20 29 31 31 28 27 27 29 33 34 29 29 31 32 33 34 22 22 12 15 9 9 6
19 23 25 25 24 28 30 26 24 25 28 29 30 31 32 35 36 30 34 31 34 34 32 35 37 37 26 28 24 13 13 6
21 22 22 29 33 30 32 29 24 23 28 25 29 32 29 30 31 33 32 31 31 29 30 33 36 36 34 33 35 31 26 23
25 26 26 26 29 31 32 29 26 25 27 26 26 27 29 28 33 31 30 31 31 31 32 34 34 37 40 43 39 35 38 34

GFSFLT2_925_spd_096.txt.gz
Wind_Speed
9 1 15 42 31 38 46 49 48 45 43 43 43 42 41 41 38 36 33 30 29 29 29 27 26 27 26 26 25 20 18 18
15 12 12 14 25 25 26 33 42 44 42 43 43 42 43 41 40 37 31 29 31 29 28 27 26 26 25 25 27 21 17 17
9 17 20 20 20 21 21 26 35 40 41 41 43 38 39 38 33 35 31 30 32 30 28 26 26 24 23 23 18 15 15 14
9 20 18 27 25 17 23 24 25 35 40 37 36 37 34 30 30 32 29 29 32 30 28 26 22 19 19 15 12 14 14 14
10 13 21 22 20 19 20 31 31 33 38 40 32 35 35 29 29 28 25 29 28 27 26 21 16 16 15 11 14 12 13 15
12 14 15 18 18 25 31 30 34 36 40 35 35 33 33 31 31 30 27 27 28 26 24 17 16 13 13 13 13 12 12 14
8 10 12 15 19 22 34 37 39 38 39 37 34 34 33 32 30 30 29 27 28 26 22 18 16 14 12 13 12 11 12 14
7 8 9 12 17 25 28 36 44 38 35 42 34 32 35 34 30 28 28 28 27 24 21 19 17 15 14 13 12 12 12 13
9 9 9 12 16 24 30 39 47 41 38 40 38 36 35 33 30 27 27 26 24 23 21 18 16 15 14 14 12 12 12 13
9 9 7 9 14 27 38 41 46 43 37 41 41 36 34 38 28 25 25 25 24 22 21 19 17 15 15 13 13 12 12 13
9 8 7 9 6 16 40 45 44 43 40 36 46 38 33 31 27 23 24 22 21 21 19 19 18 16 14 14 12 12 13 13
10 9 9 12 12 17 28 40 37 37 40 35 41 38 34 32 25 22 22 21 20 19 18 17 16 13 13 11 11 11 11 12
10 11 10 15 20 13 19 23 33 28 35 38 41 36 33 29 24 22 22 21 19 18 17 17 14 12 11 9 9 10 12 14
10 12 12 15 19 18 18 20 23 28 31 29 28 32 31 30 25 24 22 19 18 18 16 16 11 16 11 11 5 11 17 18
12 12 17 18 22 23 24 22 20 21 25 27 26 28 26 28 24 23 22 20 21 21 19 18 13 16 14 9 4 6 11 18
12 13 16 18 24 23 29 21 25 18 24 28 30 29 29 30 24 22 21 20 19 21 20 18 16 15 17 22 14 4 5 4
13 14 17 19 20 21 23 19 22 20 22 23 28 32 32 29 25 23 19 19 18 17 20 21 21 19 20 17 22 20 16 7
17 17 18 19 21 21 23 22 23 20 23 22 25 30 29 37 33 21 21 18 17 21 20 21 22 21 23 22 22 18 20 18
18 19 20 20 21 22 25 22 23 23 23 23 25 23 29 34 34 34 33 27 22 22 22 23 23 24 27 30 28 28 24 18
21 21 21 22 22 22 24 25 22 24 25 25 23 23 23 24 26 28 33 32 30 29 28 22 21 24 27 28 29 28 28 33

GFSFLT2_925_spd_099.txt.gz
Wind_Speed
10 12 18 27 29 39 43 48 49 49 47 44 42 42 39 36 36 35 34 33 30 28 26 25 26 27 25 25 19 17 16 17
9 13 13 13 27 25 45 44 49 48 48 46 44 42 38 37 36 35 33 33 31 29 26 25 25 25 24 22 20 17 16 16
7 13 16 16 14 27 30 41 47 50 47 46 44 37 39 36 29 33 32 32 31 29 26 25 24 22 22 22 13 12 14 14
8 10 13 10 15 20 24 12 19 40 40 44 37 35 36 33 31 33 32 33 31 29 26 25 21 18 16 10 6 10 11 12
7 10 12 11 12 19 10 10 33 29 38 38 33 36 35 32 35 31 29 32 26 26 26 21 17 16 13 7 11 9 11 12
9 11 14 15 15 17 11 15 36 18 34 37 34 34 33 30 33 30 28 28 27 24 23 17 16 15 11 11 11 10 11 13
8 10 12 13 19 14 16 20 29 30 31 30 33 34 32 30 30 31 29 28 28 25 21 18 15 14 12 13 11 10 11 12
8 8 8 9 12 15 21 27 33 33 33 28 32 31 31 31 29 31 30 28 28 25 22 18 16 15 14 12 11 11 11 12
9 8 8 9 9 11 16 28 30 35 39 33 32 34 33 32 30 29 29 28 26 25 20 18 18 15 13 13 11 11 11 12
9 8 8 9 11 13 17 28 31 37 41 40 36 32 31 31 27 26 26 28 25 23 22 21 18 16 15 13 11 11 11 12
9 8 8 8 11 16 19 24 35 37 38 43 44 36 34 33 25 24 23 21 23 22 22 20 18 16 15 13 12 11 12 12
11 12 8 9 9 16 23 30 34 42 38 41 45 44 39 30 23 19 24 23 22 21 20 18 18 16 14 13 11 11 10 12
13 10 10 11 7 4 11 31 37 37 43 43 44 44 42 32 33 26 23 23 22 22 20 19 16 15 13 12 10 9 11 14
15 12 11 10 9 4 6 10 32 33 35 42 46 46 44 37 27 27 25 22 21 20 19 18 15 13 13 11 5 9 16 17
15 15 13 13 14 14 15 23 30 29 31 34 40 42 43 33 26 27 26 22 22 22 20 18 14 13 12 7 4 5 10 18
15 16 15 17 16 19 14 13 14 18 26 27 35 39 37 35 28 26 22 18 22 22 20 18 15 13 13 16 11 2 3 2
17 16 15 17 19 17 20 14 16 24 24 26 30 36 33 32 27 23 21 26 20 20 19 19 17 15 17 10 15 14 13 7
17 17 16 18 20 18 18 19 19 22 23 23 27 28 33 35 28 27 26 23 21 23 20 20 19 18 17 16 16 13 15 15
19 19 18 17 20 20 22 23 23 21 23 24 26 24 26 32 35 31 27 21 18 16 18 23 20 20 20 21 22 22 20 18
21 21 20 20 21 23 25 22 22 23 22 20 23 25 27 30 36 32 28 26 25 21 24 27 25 23 23 22 21 20 21 23

GFSFLT2_925_spd_102.txt.gz
Wind_Speed
8 10 11 19 25 26 31 32 21 35 40 43 38 35 42 36 33 34 32 31 30 28 29 31 29 26 23 23 16 20 24 21
7 7 12 14 17 23 24 32 32 50 40 43 37 38 42 39 36 32 31 30 30 30 30 32 28 25 23 19 18 24 17 21
7 10 13 14 18 22 24 35 28 52 47 47 41 41 42 41 36 35 32 32 32 31 31 31 26 25 24 23 18 19 24 20
9 9 13 12 8 10 17 26 32 49 38 47 43 41 42 35 34 35 33 32 31 30 30 29 26 27 22 14 10 20 21 16
10 8 11 10 9 10 16 19 26 58 51 49 43 38 41 36 35 34 35 33 32 30 29 27 27 24 17 8 10 17 22 19
8 7 11 13 11 16 17 19 16 27 45 48 42 36 37 38 36 33 36 35 33 32 30 24 21 17 11 15 14 16 22 20
7 8 11 16 16 16 15 18 23 16 32 33 35 36 35 37 36 33 31 28 29 33 27 24 20 18 11 15 9 17 18 16
8 9 10 10 20 18 18 23 37 23 25 32 34 33 32 36 36 30 30 28 26 31 27 25 22 18 15 16 10 15 18 14
9 10 8 8 8 13 15 23 35 33 37 26 30 32 32 36 34 32 29 29 28 26 23 24 20 19 17 15 13 15 19 24
9 8 6 8 9 11 19 25 30 30 37 40 33 29 33 34 34 34 33 32 31 29 24 23 20 19 19 16 15 14 14 22
9 8 9 7 9 10 12 22 30 34 36 34 37 37 33 35 35 33 36 36 32 28 25 23 21 19 18 16 15 16 15 14
11 11 9 9 8 9 13 14 25 32 38 40 42 39 37 31 33 30 35 36 32 28 26 23 22 20 19 17 14 14 15 15
13 13 12 10 10 11 15 20 25 30 36 43 46 44 42 37 32 26 26 28 21 25 23 23 21 18 17 19 13 11 15 15
14 14 13 10 10 10 11 18 27 31 29 44 45 46 48 41 35 30 23 21 24 23 23 22 19 18 11 14 3 5 12 17
15 14 14 12 9 7 3 12 23 29 34 37 49 50 47 41 28 29 26 20 22 24 25 24 16 18 12 6 3 4 10 16
17 15 17 13 12 9 2 5 12 14 37 34 39 48 43 36 31 31 33 22 28 29 28 23 18 18 18 20 10 3 1 2
17 19 18 15 14 15 10 14 19 25 23 34 38 41 45 42 36 34 34 29 30 29 24 27 18 22 23 17 20 11 8 4
18 18 18 17 17 15 12 16 20 24 26 25 27 33 38 39 39 34 31 29 27 23 30 27 28 22 22 20 16 7 13 10
21 20 18 19 22 18 19 22 24 26 28 27 27 29 32 37 41 36 31 31 27 31 22 28 30 23 20 20 19 20 18 17
23 22 20 22 21 21 21 22 23 25 30 30 30 30 32 35 39 33 31 32 32 22 31 30 26 25 23 22 24 27 25 25

GFSFLT2_925_spd_105.txt.gz
Wind_Speed
7 9 11 18 21 24 28 31 34 33 36 23 32 38 37 38 33 30 31 29 31 34 35 33 33 27 23 22 28 27 22 21
12 11 12 14 18 24 26 31 33 34 37 29 41 44 37 36 35 34 32 31 33 35 37 34 30 26 23 21 29 24 20 20
12 11 11 13 15 17 19 22 26 37 38 31 48 35 37 34 36 34 32 32 33 37 36 33 31 27 25 32 26 23 19 22
13 10 9 12 14 17 17 20 27 29 36 32 26 38 38 38 38 33 32 34 34 35 35 33 29 27 24 19 25 25 20 20
15 13 12 14 16 10 10 11 26 37 33 39 27 37 39 39 38 35 32 33 34 34 34 32 30 26 23 18 27 24 20 21
15 11 9 10 12 13 15 13 16 30 31 33 48 36 38 37 39 38 37 35 35 35 33 32 31 25 17 22 25 23 21 21
14 9 9 12 13 16 14 11 17 16 37 50 50 43 38 36 39 40 38 37 37 36 32 33 29 21 21 18 19 23 22 22
12 8 10 14 16 16 17 8 8 12 46 45 46 43 40 38 40 40 39 39 37 36 31 30 24 19 18 16 15 25 21 23
12 8 11 12 19 20 17 14 15 24 36 43 41 40 40 37 35 37 38 38 38 34 30 24 21 17 19 16 24 24 21 22
13 12 11 11 9 21 18 21 26 29 32 42 38 42 40 38 36 35 37 37 38 33 29 29 25 22 21 16 21 23 22 21
18 16 14 12 10 11 18 22 30 34 36 41 42 42 46 42 36 36 37 38 36 34 28 32 28 24 22 18 16 18 22 23
20 16 14 14 15 13 15 23 26 35 41 40 42 45 42 43 37 40 39 40 37 35 29 31 28 26 24 20 17 16 19 22
18 18 18 17 16 17 16 18 26 32 37 39 45 44 43 41 41 42 42 39 40 37 35 32 29 25 24 19 14 15 19 18
19 21 20 18 18 18 17 23 24 29 36 43 46 46 46 43 43 43 42 39 39 38 35 32 29 26 18 14 2 4 13 20
22 22 21 18 17 16 14 15 17 26 28 38 43 48 49 44 43 39 43 40 35 35 35 30 27 24 28 10 3 4 4 15
21 22 21 18 17 16 17 18 18 23 35 35 45 46 48 44 38 38 34 41 36 32 31 29 26 22 28 13 7 7 3 1
22 23 21 20 18 16 9 13 15 24 26 25 36 44 44 46 37 38 36 39 40 36 32 27 21 22 21 19 16 8 6 3
22 23 23 20 19 19 15 17 16 17 23 28 29 40 41 42 37 34 30 30 32 29 25 20 20 21 29 24 19 8 13 5
22 24 22 21 20 20 18 19 20 21 22 29 31 28 34 37 37 36 31 24 23 19 24 26 23 23 27 26 25 24 18 14
23 23 21 21 22 20 21 20 23 22 24 25 28 31 33 36 35 31 29 26 26 26 25 26 25 33 32 24 25 27 26 22

GFSFLT2_925_spd_108.txt.gz
Wind_Speed
19 19 18 20 21 22 26 29 28 34 36 36 39 31 15 24 28 26 26 26 30 37 37 34 28 23 19 30 28 24 24 24
19 18 18 19 22 23 25 28 30 32 39 42 32 21 25 26 30 32 30 27 34 37 36 34 26 22 28 28 27 23 22 24
19 18 17 15 17 23 27 28 32 31 39 38 32 38 38 26 32 36 30 29 36 38 36 32 26 20 29 29 26 21 23 26
22 19 16 14 14 16 21 25 28 29 41 43 36 43 35 35 33 35 31 32 37 38 36 30 24 28 33 29 23 22 24 25
24 20 16 15 14 15 17 22 22 26 40 48 41 41 34 33 37 34 33 34 37 37 36 31 29 29 25 24 24 24 26 27
23 20 17 12 14 15 16 15 20 29 32 43 49 43 43 32 34 35 37 37 38 39 36 32 29 22 17 27 25 24 26 26
24 20 16 13 14 17 18 18 18 27 41 36 51 43 38 36 32 37 38 38 40 40 35 32 28 21 18 28 26 23 23 25
25 20 16 15 16 18 18 14 21 26 34 42 44 40 39 37 33 38 40 40 41 40 35 33 27 17 17 26 25 22 23 25
25 19 15 15 17 16 18 17 15 30 39 44 43 44 38 37 39 40 42 42 41 38 34 30 25 17 17 23 22 23 23 21
24 19 17 14 15 20 18 16 12 13 41 42 44 46 41 42 39 40 42 41 39 38 35 32 24 20 19 21 25 23 22 20
25 21 20 15 12 17 21 18 16 23 24 40 44 43 44 40 41 40 43 41 41 38 36 33 27 22 20 19 26 23 22 20
25 23 21 18 13 14 19 20 23 24 31 33 39 42 41 40 40 40 42 39 41 40 36 30 30 27 22 18 24 23 23 22
27 26 22 22 20 18 21 22 26 25 29 38 45 43 44 41 40 43 44 39 45 43 34 30 31 28 23 16 14 19 22 23
29 26 24 22 22 20 17 20 27 32 30 35 38 45 47 44 40 41 45 37 43 42 37 31 27 32 18 15 2 4 19 23
31 28 26 23 20 19 13 17 17 26 28 31 36 40 44 42 44 40 42 42 39 42 38 36 26 34 29 11 3 4 4 12
29 30 27 23 21 21 20 17 13 16 27 32 35 42 44 43 42 42 39 41 39 41 41 38 31 27 28 18 11 12 3 1
30 29 27 24 23 22 21 20 21 22 24 24 37 37 40 40 42 43 40 37 39 37 37 39 32 29 27 22 14 10 8 4
28 28 27 25 24 22 22 20 21 22 25 26 22 41 37 37 36 40 39 37 40 38 37 34 30 21 30 25 18 9 8 4
30 28 25 27 24 23 23 21 22 25 26 25 34 26 35 36 37 38 38 41 39 38 33 28 27 28 22 18 21 21 17 23
28 28 26 28 25 24 21 17 18 16 19 23 27 28 33 38 37 33 39 39 40 36 34 26 23 24 20 21 28 27 23 24

GFSFLT2_925_spd_111.txt.gz
Wind_Speed
23 25 23 23 24 24 25 27 29 26 29 34 36 18 16 23 21 24 24 24 25 32 38 37 33 25 27 26 25 26 24 25
24 24 24 24 25 24 25 26 27 30 35 37 28 25 34 30 25 24 26 26 29 34 36 35 31 25 24 27 25 22 22 23
22 24 24 24 24 25 25 26 30 31 37 36 28 32 31 31 31 27 24 27 33 35 34 32 24 23 28 27 24 21 20 23
24 24 24 23 24 25 28 29 32 34 36 39 39 39 31 36 33 27 28 27 35 35 33 28 22 29 31 28 21 20 23 24
27 26 25 24 23 23 24 30 29 27 40 45 44 40 35 35 31 27 28 28 34 35 32 27 26 33 32 25 21 22 25 24
30 27 27 25 22 20 22 25 26 26 38 48 43 39 39 37 37 39 32 31 36 38 34 27 28 35 31 26 22 22 22 23
32 29 28 25 24 21 22 23 28 27 35 38 42 39 38 38 31 36 36 35 39 38 34 29 29 30 27 25 23 21 21 22
32 33 29 26 23 23 24 24 26 30 31 38 40 43 40 40 33 36 38 36 40 40 35 31 27 25 25 25 24 21 19 22
35 33 28 24 22 22 23 22 21 25 31 35 44 43 45 39 37 36 40 38 41 40 35 30 26 22 23 26 23 21 21 23
33 31 27 25 24 22 22 20 20 19 26 35 41 38 52 38 38 38 40 40 41 40 37 31 26 23 27 27 23 22 22 21
33 31 28 25 22 22 22 19 19 18 27 33 37 30 44 38 38 38 41 40 39 42 37 36 27 24 28 24 24 23 21 22
34 31 28 24 21 21 22 17 15 13 16 31 34 30 39 39 38 38 39 41 41 40 37 35 28 26 25 23 23 23 22 22
36 33 30 26 22 19 18 18 17 14 13 30 34 35 40 40 39 40 39 41 43 43 38 37 27 26 24 18 18 19 22 21
36 34 32 29 25 20 14 19 19 17 20 29 34 36 39 36 36 37 40 37 42 40 34 32 28 31 16 15 3 4 15 21
37 35 33 29 25 22 17 19 18 17 23 25 33 38 39 37 38 39 40 38 41 43 38 32 24 34 26 9 3 4 6 14
33 34 32 29 27 25 26 16 17 16 21 25 26 33 36 38 40 40 43 40 38 37 38 37 31 27 24 18 11 11 3 2
31 31 30 29 27 27 26 26 19 21 24 25 28 28 38 39 36 36 36 38 36 41 34 34 34 30 27 23 16 11 9 4
30 30 30 28 28 26 26 23 21 18 21 24 28 31 35 39 40 40 39 35 35 37 38 37 36 34 30 29 24 9 7 5
26 29 26 27 29 28 26 24 21 22 25 26 23 28 31 44 41 38 38 39 39 38 38 37 37 34 29 27 21 15 7 8
26 28 25 28 29 27 25 22 21 22 24 26 26 29 25 38 43 41 37 37 42 38 35 36 32 31 30 21 18 13 12 13

GFSFLT2_925_spd_114.txt.gz
Wind_Speed
24 24 26 26 26 26 27 27 29 31 32 31 32 36 31 26 17 15 17 20 21 24 28 29 27 26 25 25 23 22 23 24
24 25 27 26 26 26 26 27 29 31 32 33 35 37 31 28 22 15 20 23 24 26 31 29 27 26 26 25 23 23 22 22
25 27 29 28 27 26 26 27 28 33 34 37 34 38 24 21 22 25 23 24 25 29 32 30 25 26 27 25 22 21 23 23
29 29 30 29 28 26 27 27 31 34 36 39 45 37 28 33 32 32 27 27 27 32 33 30 26 28 28 24 24 23 23 23
32 30 30 30 29 29 29 29 32 34 36 46 42 33 34 35 34 32 31 32 31 34 33 30 27 29 30 26 22 22 23 24
32 31 31 30 28 29 30 31 31 33 38 43 41 39 40 38 36 37 37 34 37 36 34 28 27 31 30 25 22 23 24 22
36 35 33 31 28 27 27 29 31 30 34 39 40 40 41 39 37 37 37 39 39 37 33 30 29 32 29 25 25 22 21 22
37 36 34 32 31 28 27 26 27 27 29 37 41 43 40 37 35 35 40 37 42 41 35 30 30 31 29 25 23 21 22 23
39 36 35 33 30 28 27 24 25 27 30 31 44 46 40 39 35 33 38 38 42 41 32 26 28 30 28 23 25 23 22 22
35 34 35 33 30 27 26 23 25 26 28 32 38 40 45 39 37 35 40 40 42 42 34 31 30 30 27 26 25 22 19 20
34 35 37 34 30 24 24 23 25 26 29 32 37 42 38 46 41 38 42 39 42 44 38 34 29 28 27 28 24 20 21 21
33 34 37 33 28 23 23 24 25 27 26 29 35 42 37 45 40 43 43 41 40 40 41 34 31 29 25 24 21 20 21 19
33 36 36 33 27 23 21 24 25 24 23 20 27 34 45 39 45 42 42 43 43 43 42 36 28 29 27 14 12 16 18 18
34 37 37 32 28 24 17 20 20 22 17 20 23 20 37 38 40 42 41 38 42 41 34 29 24 33 17 13 3 3 12 17
30 34 36 32 26 22 19 18 15 15 15 24 24 24 33 35 36 40 41 40 42 43 40 35 25 33 28 9 3 3 5 11
25 31 32 33 31 23 25 18 14 12 20 22 28 29 31 31 32 33 37 37 38 42 40 37 31 28 28 9 11 14 3 1
28 25 27 32 32 30 23 18 18 18 21 20 26 29 33 33 32 30 32 36 39 41 36 36 33 32 28 20 17 12 11 4
26 26 26 32 32 30 28 25 22 20 21 23 21 28 32 34 36 36 34 37 38 42 40 40 38 34 31 28 23 10 7 5
23 26 26 31 33 31 26 25 24 23 24 22 23 24 25 31 36 39 39 39 38 40 37 41 38 34 38 31 28 21 19 9
23 25 25 30 31 29 24 22 22 23 24 23 24 24 26 29 37 36 38 40 38 38 37 38 38 33 34 30 24 18 16 14

GFSFLT2_925_spd_117.txt.gz
Wind_Speed
21 23 25 25 26 26 26 26 27 27 32 32 30 32 34 26 30 26 20 18 17 18 21 23 25 24 24 23 22 21 17 16
24 24 26 25 26 26 26 26 27 29 33 29 33 33 28 32 32 29 28 20 17 20 22 24 25 24 23 22 20 18 16 16
26 27 28 27 27 27 27 27 27 29 31 33 33 29 31 34 31 29 22 21 26 23 21 23 24 23 23 22 20 15 16 15
29 28 29 29 28 28 29 28 28 29 30 31 32 33 30 29 29 26 23 25 26 23 23 24 24 21 22 22 14 15 16 17
29 30 29 31 31 29 30 30 29 31 29 31 35 37 35 29 27 27 27 28 28 25 25 25 22 21 20 18 16 17 14 15
26 29 32 33 32 31 29 30 31 33 35 36 38 37 36 28 27 30 27 26 23 30 31 24 22 20 20 18 18 16 16 16
29 31 32 34 34 32 29 31 32 33 34 37 40 33 31 36 31 32 31 28 27 33 30 27 21 22 21 19 18 16 19 17
28 35 36 34 36 34 33 32 32 32 31 34 40 38 40 36 37 31 34 34 27 34 38 33 20 19 20 19 16 16 19 19
29 32 39 39 37 34 33 32 31 32 30 30 38 42 42 40 39 39 34 40 33 33 32 33 20 19 20 18 17 18 17 18
27 28 35 41 40 37 34 31 28 27 28 33 34 40 41 38 35 34 38 40 39 39 32 27 21 21 20 18 17 17 16 17
25 27 32 39 37 36 33 29 26 25 28 30 35 37 38 39 38 36 41 42 40 35 31 30 24 22 20 17 16 16 15 15
24 26 28 32 34 32 27 23 23 23 26 28 32 32 39 43 39 40 42 38 34 34 32 26 26 24 19 16 14 13 14 15
19 23 26 31 31 28 25 23 23 24 25 24 28 32 37 40 35 43 43 42 40 36 34 30 23 23 20 13 10 9 12 13
16 20 26 30 29 26 18 21 20 21 22 23 26 31 35 35 39 45 45 41 36 39 37 30 24 26 17 19 6 5 11 12
16 19 22 26 25 23 15 15 12 19 22 23 23 27 26 29 34 42 43 43 41 40 36 33 25 26 24 11 5 5 12 11
14 18 23 26 27 23 22 18 13 14 18 19 20 18 25 33 37 43 42 40 38 38 36 36 33 29 23 9 13 12 6 5
15 19 23 26 31 27 23 19 17 13 16 19 19 23 29 34 39 41 41 37 39 39 34 33 31 30 27 18 11 9 10 4
12 17 21 24 25 26 25 24 21 17 19 21 24 23 27 30 30 34 40 36 38 38 38 36 34 32 30 23 21 13 13 6
11 16 20 24 24 22 24 24 20 21 20 21 21 24 24 29 30 29 29 33 36 36 36 36 36 34 33 27 22 18 15 10
12 16 19 21 23 19 18 20 18 18 23 20 25 20 26 30 34 33 34 32 32 37 35 35 35 34 33 30 30 25 20 20

GFSFLT2_925_spd_123.txt.gz
Wind_Speed
12 14 16 16 18 18 17 17 18 19 21 22 25 28 28 24 16 23 15 20 17 20 19 20 21 21 19 18 16 9 2 16
15 14 16 16 18 20 19 18 19 21 21 23 25 26 27 24 22 22 20 19 19 22 22 19 21 21 20 20 15 9 5 10
16 15 16 17 17 18 21 19 18 20 21 23 24 21 23 20 22 20 22 22 20 22 23 22 23 20 19 18 15 10 6 9
17 17 17 18 17 18 19 18 18 18 19 20 22 22 20 20 23 21 25 22 22 21 19 17 19 21 19 16 12 11 10 9
20 19 18 19 18 21 19 20 20 22 23 23 23 23 23 23 23 21 21 22 19 19 16 15 17 18 17 15 13 12 11 13
20 21 20 20 19 21 24 22 22 23 24 26 24 24 21 21 22 21 23 23 19 21 21 18 20 20 18 17 12 15 13 13
18 20 21 22 24 22 25 25 24 24 23 27 26 25 23 22 24 25 25 23 23 23 22 23 25 20 19 21 16 12 13 13
17 20 22 22 25 25 26 27 25 26 25 26 29 26 25 25 24 23 24 23 27 26 24 26 20 21 18 21 17 14 15 14
15 18 20 23 23 26 28 28 29 27 27 27 27 29 26 25 24 24 29 30 30 25 28 27 24 23 22 21 18 15 16 15
17 16 19 23 25 23 27 28 30 29 27 27 29 29 27 26 24 25 28 30 29 31 27 29 25 26 24 22 19 18 17 15
17 19 19 22 24 26 25 31 30 30 28 24 32 31 31 27 29 29 26 28 31 25 29 23 21 23 24 21 21 20 20 19
17 20 20 20 22 24 26 26 30 33 30 27 23 29 27 28 28 31 30 30 32 32 32 26 24 25 25 22 21 21 20 20
18 18 20 22 24 26 27 28 24 26 29 30 24 27 27 29 29 32 33 33 36 40 38 32 26 28 27 22 19 20 18 18
13 17 17 21 24 25 25 26 19 25 22 25 26 24 25 31 28 30 35 32 37 39 38 30 27 28 26 24 7 15 20 20
12 13 14 17 21 18 14 18 15 23 26 24 25 23 25 25 32 34 34 35 34 40 42 39 30 31 33 26 10 8 15 18
11 9 10 13 18 20 24 21 17 18 19 23 22 22 24 25 26 30 32 37 36 41 45 46 32 29 32 31 24 24 13 9
10 9 7 8 16 14 22 19 23 22 23 23 23 23 25 24 26 26 33 37 38 45 42 45 40 33 34 32 28 21 30 16
10 8 6 9 14 18 22 24 23 20 17 18 21 21 22 21 22 28 32 36 37 43 46 45 41 36 35 32 29 18 24 18
13 8 6 9 12 16 20 24 22 16 17 20 20 19 19 19 20 25 28 34 31 39 40 43 43 36 35 33 25 25 24 20
16 14 5 7 12 14 20 18 18 18 19 18 18 19 20 19 22 24 25 32 33 40 43 41 43 34 33 33 24 24 20 21